Погода в Большой Сакме

Россия / Саратовская область     51°52′31″N   48°31′37″E
темп.,
°C
ветер,
м/с
пор.,
м/с
влажн.,
%
обл.,
%
осадки,
мм/ч
давл.,
гПа
погр.,
м
16 июня, ср
ср1601:00+18вюв367067 0.4 100689
04:00+18юв227673 0.4 100611
07:00+19ююз478087 0.0 1007264
10:00+24юз68635 0.0 1008747
13:00+27юз795547 0.0 10091887
16:00+27зюз795258 0.1 10092178
19:00+24з5107197 0.7 1009513
22:00+20зюз4108733 0.7 1010235
17 июня, чт
чт1701:00+18з49924 0.0 1010182
04:00+18сз37940 0.0 1011148
07:00+19с58845 0.0 1013433
10:00+22с78692 0.0 1014871
13:00+24ссв89530 0.0 10161189
16:00+23ссв89470 0.0 10171349
19:00+21ссв610602 0.0 1018781
22:00+16ссв37730 0.0 1020115
18 июня, пт
пт1801:00+15ссв48770 0.0 1020145
04:00+14ссв49835 0.0 1021163
07:00+17ссв35745 0.0 1023207
10:00+21ссв45545 0.0 1024969
13:00+23ссв67463 0.0 10242120
16:00+22ссв78460 0.0 10241675
19:00+20ссв69550 0.0 1026685
22:00+15св47730 0.0 1027117
19 июня, сб
сб1901:00+13св35733 0.0 102763
04:00+12ссв34715 0.0 102854
07:00+15св23662 0.0 1029144
10:00+20св23495 0.0 1029844
13:00+23с22455 0.0 10281351
16:00+25ссз33445 0.0 10271308
19:00+24ссз12535 0.0 1026513
22:00+19юз11630 0.0 102611
20 июня, вс
вс2001:00+17зюз22710 0.0 102615
04:00+16зсз22840 0.0 102613
07:00+20зсз22750 0.0 1026142
10:00+25зсз33610 0.0 1026716
13:00+28сз44530 0.0 10251403
16:00+29ссз44492 0.0 10231960
19:00+28ссз34584 0.0 1023184
22:00+23ссв227056 0.0 102311